Location: Fort Wayne
(41.1310°N, 85.1290°W)
Time: 02:45:42
(UTC-04:00)

SR - Visible Passes

Search period start: 02 September 2014 00:00
Search period end: 12 September 2014 00:00
Orbit: 575 x 891 km, 66.7° (Epoch: 01 September)

Date Brightness Start Highest point End Pass type
(mag) Time Alt. Az. Time Alt. Az. Time Alt. Az.
02 Sep ? 03:17:54 26° E 03:17:54 26° E 03:21:15 10° NE visible
02 Sep ? 04:57:26 42° WNW 04:58:15 45° NW 05:03:56 10° NNE visible
03 Sep ? 02:31:10 12° ENE 02:31:10 12° ENE 02:31:43 10° ENE visible
03 Sep ? 04:10:41 66° N 04:10:41 66° N 04:15:50 10° NNE visible
03 Sep ? 05:50:12 12° WNW 05:53:08 17° NW 05:56:54 10° N visible
04 Sep ? 03:23:54 36° NE 03:23:54 36° NE 03:27:29 10° NE visible
04 Sep ? 05:03:25 25° WNW 05:04:21 27° NW 05:09:18 10° N visible
05 Sep ? 02:37:05 18° ENE 02:37:05 18° ENE 02:38:47 10° NE visible
05 Sep ? 04:16:36 41° NNW 04:16:36 41° NNW 04:21:26 10° NNE visible
05 Sep ? 05:58:12 10° NW 05:59:38 11° NNW 06:01:05 10° NNW visible
06 Sep ? 03:29:45 38° NNE 03:29:45 38° NNE 03:33:20 10° NNE visible
06 Sep ? 05:09:15 16° NW 05:10:39 17° NW 05:14:22 10° N visible
07 Sep ? 02:42:52 23° NE 02:42:52 23° NE 02:45:00 10° NE visible
07 Sep ? 04:22:22 26° NW 04:22:22 26° NW 04:26:47 10° N visible
08 Sep ? 01:55:58 12° NE 01:55:58 12° NE 01:56:19 10° NE visible
08 Sep ? 03:35:28 31° N 03:35:28 31° N 03:38:55 10° NNE visible
08 Sep ? 05:15:49 10° NW 05:17:09 11° NNW 05:18:29 10° NNW visible
09 Sep ? 02:48:32 24° NNE 02:48:32 24° NNE 02:50:49 10° NNE visible
09 Sep ? 04:28:02 17° NW 04:28:09 17° NW 04:31:50 10° N visible
10 Sep ? 02:01:35 15° NE 02:01:35 15° NE 02:02:30 10° NE visible
10 Sep ? 03:41:05 23° NNW 03:41:05 23° NNW 03:44:16 10° N visible
11 Sep ? 02:54:06 22° N 02:54:06 22° N 02:56:23 10° NNE visible
11 Sep ? 04:33:36 10° NW 04:34:39 11° NNW 04:35:51 10° NNW visible
